TimeEST,TemperatureF,Dew PointF,Humidity,Sea Level PressureIn,VisibilityMPH,Wind Direction,Wind SpeedMPH,Gust SpeedMPH,PrecipitationIn,Events,Conditions,WindDirDegrees,DateUTC
12:53 AM,33.1,21.9,64,29.74,10.0,Variable,3.5,-,N/A,,Overcast,0,2013-01-05 05:53:00
1:53 AM,33.1,23.0,66,29.75,10.0,SW,5.8,-,N/A,,Overcast,230,2013-01-05 06:53:00
2:53 AM,32.0,23.0,69,29.76,10.0,WSW,6.9,-,N/A,,Mostly Cloudy,240,2013-01-05 07:53:00
3:53 AM,32.0,21.9,66,29.77,10.0,Variable,3.5,-,N/A,,Clear,0,2013-01-05 08:53:00
4:53 AM,32.0,21.9,66,29.79,10.0,Variable,5.8,-,N/A,,Mostly Cloudy,0,2013-01-05 09:53:00
5:53 AM,30.9,21.0,67,29.83,10.0,Variable,3.5,-,N/A,,Scattered Clouds,0,2013-01-05 10:53:00
6:53 AM,28.9,21.0,72,29.88,10.0,West,3.5,-,N/A,,Scattered Clouds,260,2013-01-05 11:53:00
7:53 AM,32.0,19.9,61,29.92,10.0,Variable,3.5,-,N/A,,Overcast,0,2013-01-05 12:53:00
8:53 AM,34.0,12.0,40,29.97,10.0,Variable,5.8,19.6,N/A,,Clear,0,2013-01-05 13:53:00
9:53 AM,34.0,10.9,38,30.03,10.0,WNW,12.7,26.5,N/A,,Clear,290,2013-01-05 14:53:00
10:53 AM,36.0,10.0,34,30.05,10.0,Variable,4.6,20.7,N/A,,Clear,0,2013-01-05 15:53:00
12:53 PM,34.0,9.0,35,30.10,10.0,NW,8.1,16.1,N/A,,Clear,310,2013-01-05 17:53:00
1:53 PM,33.1,7.0,34,30.14,10.0,NW,10.4,-,N/A,,Clear,320,2013-01-05 18:53:00
2:53 PM,32.0,7.0,35,30.17,10.0,Variable,4.6,-,N/A,,Clear,0,2013-01-05 19:53:00
3:53 PM,28.9,7.0,40,30.20,10.0,Variable,4.6,-,N/A,,Clear,0,2013-01-05 20:53:00
4:53 PM,26.1,7.0,44,30.22,10.0,Calm,Calm,-,N/A,,Clear,0,2013-01-05 21:53:00
5:53 PM,25.0,7.0,46,30.23,10.0,Calm,Calm,-,N/A,,Clear,0,2013-01-05 22:53:00
6:53 PM,21.9,7.0,53,30.26,10.0,Calm,Calm,-,N/A,,Clear,0,2013-01-05 23:53:00
7:53 PM,18.0,9.0,68,30.27,10.0,Calm,Calm,-,N/A,,Clear,0,2013-01-06 00:53:00
8:53 PM,14.0,8.1,77,30.27,10.0,Calm,Calm,-,N/A,,Clear,0,2013-01-06 01:53:00
9:53 PM,14.0,8.1,77,30.27,10.0,Calm,Calm,-,N/A,,Clear,0,2013-01-06 02:53:00
10:53 PM,10.0,6.1,84,30.27,10.0,Calm,Calm,-,N/A,,Clear,0,2013-01-06 03:53:00
11:53 PM,10.9,6.1,81,30.25,10.0,Calm,Calm,-,N/A,,Clear,0,2013-01-06 04:53:00